Grand Island, NE

10:48 AM CST on January 19, 2018 (GMT -0600)
Central Nebraska Regional

Weather History for KGRI - September, 2011

Change the Weather History Date:

Wednesday, September 14, 2011

  Actual Average Record
Temperature  
Mean Temperature 50 °F 66 °F  
Max Temperature 59 °F 79 °F 99 °F (1939)
Min Temperature 41 °F 53 °F 35 °F (1945)
Degree Days  
Heating Degree Days 15 3  
Month to date heating degree days 37 24  
Since 1 July heating degree days 37 34  
Cooling Degree Days 0 4  
Month to date cooling degree days 47 73  
Year to date cooling degree days 1086 987  
Moisture  
Dew Point 44 °F    
Average Humidity 66    
Maximum Humidity 93    
Minimum Humidity 39    
Precipitation  
Precipitation 0.12 in 0.07 in 2.43 in (1921)
Month to date precipitation 0.56 1.07  
Year to date precipitation 23.37 21.84  
Snow  
Snow 0.00 in 0.00 in - ()
Month to date snowfall 0.0 0.0  
Since 1 July snowfall 0.0 0.0  
Since 1 September snowfall 0.0 0.0  
Snow Depth 0.00 in    
Sea Level Pressure  
Sea Level Pressure 30.27 in    
Wind  
Wind Speed 9 mph (NNE)    
Max Wind Speed 21 mph    
Max Gust Speed 25 mph    
Visibility 10 miles    
Events Rain    
T = Trace of Precipitation, MM = Missing Value Source: NWS Daily Summary

Daily Weather History Graph

Daily Weather History Graph

Search for Another Location

Airport or City:

Trip Planner

Search our weather history database for the weather conditions in past years. The results will help you decide how hot, cold, wet, or windy it might be!

Date:

Astronomy

Sep. 14, 2011 Rise Set
Actual Time 7:12 AM CDT 7:44 PM CDT
Civil Twilight 6:44 AM CDT 8:11 PM CDT
Nautical Twilight 6:12 AM CDT 8:44 PM CDT
Astronomical Twilight 5:38 AM CDT 9:17 PM CDT
Moon 8:27 PM CDT (9/14) 9:26 AM CDT (9/14)
Length of Visible Light 13h 27m
Length of Day
12h 31m
Waning Gibbous, 95% of the Moon is Illuminated
Sep 14
Waning Gibbous
Sep 20
Last Quarter
Sep 27
New
Oct 3
First Quarter
Oct 11
Full

Hourly Weather History & Observations

Time (CDT) Temp. Windchill Dew Point Humidity Pressure Visibility Wind Dir Wind Speed Gust Speed Precip Events Conditions
12:53 AM 57.9 °F - 55.0 °F 90% 30.11 in 10.0 mi ENE 3.5 mph - 0.00 in   Mostly Cloudy
1:53 AM 59.0 °F - 54.0 °F 83% 30.13 in 10.0 mi North 4.6 mph - N/A   Overcast
2:53 AM 57.9 °F - 55.0 °F 90% 30.15 in 10.0 mi WNW 6.9 mph - 0.04 in Rain Light Rain
3:53 AM 55.9 °F - 53.1 °F 90% 30.14 in 6.0 mi NNE 8.1 mph - 0.05 in Rain Rain
4:53 AM 54.0 °F - 51.1 °F 90% 30.13 in 10.0 mi NE 8.1 mph - 0.03 in   Overcast
5:53 AM 54.0 °F - 51.1 °F 90% 30.14 in 10.0 mi ENE 11.5 mph - 0.00 in Rain Light Rain
6:53 AM 53.1 °F - 50.0 °F 89% 30.18 in 10.0 mi Calm Calm - 0.00 in   Mostly Cloudy
7:53 AM 53.1 °F - 50.0 °F 89% 30.21 in 10.0 mi North 5.8 mph - N/A   Overcast
8:53 AM 54.0 °F - 51.1 °F 90% 30.24 in 10.0 mi NNE 9.2 mph - N/A   Overcast
9:44 AM 53.6 °F - 50.0 °F 88% 30.26 in 10.0 mi NNE 10.4 mph - N/A   Overcast
9:51 AM 53.6 °F - 50.0 °F 88% 30.27 in 10.0 mi North - - N/A   Overcast
9:53 AM 54.0 °F - 50.0 °F 86% 30.27 in 10.0 mi NNE 13.8 mph - N/A   Overcast
10:53 AM 53.1 °F - 46.9 °F 80% 30.30 in 10.0 mi NNE 13.8 mph 21.9 mph N/A   Overcast
11:36 AM 53.6 °F - 44.6 °F 72% 30.32 in 10.0 mi NE 9.2 mph 19.6 mph N/A   Overcast
11:53 AM 53.1 °F - 46.0 °F 77% 30.33 in 10.0 mi NNE 13.8 mph - N/A   Overcast
12:53 PM 54.0 °F - 44.1 °F 69% 30.35 in 10.0 mi NNE 16.1 mph 21.9 mph N/A   Overcast
1:53 PM 54.0 °F - 39.0 °F 57% 30.34 in 10.0 mi NNE 12.7 mph - N/A   Overcast
2:53 PM 57.0 °F - 37.0 °F 47% 30.33 in 10.0 mi NNE 11.5 mph - N/A   Overcast
3:53 PM 57.2 °F - 32.0 °F 38% 30.32 in 10.0 mi NNE 12.7 mph - N/A   Overcast
4:53 PM 55.9 °F - 34.0 °F 44% 30.32 in 10.0 mi North 10.4 mph - N/A   Overcast
5:53 PM 55.9 °F - 34.0 °F 44% 30.31 in 10.0 mi NNE 13.8 mph 19.6 mph N/A   Scattered Clouds
6:53 PM 53.1 °F - 32.0 °F 45% 30.32 in 10.0 mi NNE 12.7 mph - N/A   Overcast
7:53 PM 48.9 °F - 32.0 °F 52% 30.35 in 10.0 mi North 4.6 mph - N/A   Mostly Cloudy
8:53 PM 46.0 °F 43.1 °F 37.0 °F 71% 30.37 in 10.0 mi North 5.8 mph - N/A   Scattered Clouds
9:53 PM 45.0 °F 43.5 °F 39.0 °F 80% 30.39 in 10.0 mi North 3.5 mph - N/A   Partly Cloudy
10:53 PM 41.0 °F 38.0 °F 37.0 °F 86% 30.39 in 10.0 mi North 4.6 mph - N/A   Clear
11:53 PM 41.0 °F - 36.0 °F 82% 30.40 in 10.0 mi Calm Calm - N/A   Clear